CAPE
0 134 0 0 0 0 0 0 0 0 0 0 0 0 0 0 0 0 0 0 0 0 0 0 0 0 0 0 0 0 0 0 34 404 804 815 849 736 801 1199 863 779 439
0 232 0 0 0 0 0 0 0 0 0 0 0 0 0 0 0 0 0 0 0 0 0 0 0 0 0 0 0 0 0 0 0 14 366 790 687 764 798 1258 936 887 510
0 297 1 4 0 0 0 0 0 0 0 0 0 0 0 0 0 0 0 0 0 0 0 0 0 0 0 0 0 0 0 0 0 0 1 507 868 687 817 757 761 798 520
0 334 26 34 1 0 0 0 0 0 0 0 0 0 0 0 0 0 0 0 0 0 0 0 0 0 3 4 0 0 0 13 0 0 0 11 473 1005 614 819 640 834 614
0 306 139 82 12 0 0 0 0 0 0 0 0 0 0 0 5 5 10 23 35 0 0 1 2 3 1 35 42 18 0 0 96 0 0 0 0 832 909 612 624 902 699
0 108 328 190 26 0 0 0 0 0 0 0 0 0 2 17 16 13 26 46 103 156 66 11 22 3 1 150 7 12 75 0 0 0 0 0 0 305 608 740 495 835 591
15 27 363 262 37 13 7 0 0 0 0 0 0 30 80 150 161 216 318 402 422 296 230 211 177 142 67 135 78 24 46 94 0 0 1 0 0 1 555 765 773 652 654
3 16 101 397 203 73 57 66 16 13 30 62 90 76 212 235 383 559 715 702 530 308 342 194 212 160 162 134 65 86 38 24 49 7 0 26 8 3 277 732 660 680 571
11 44 36 1026 569 257 220 217 148 58 78 154 145 167 290 333 570 803 969 689 390 252 103 65 88 112 130 109 119 122 111 79 6 26 38 7 33 0 0 75 783 715 587
80 53 77 304 1005 711 416 763 492 185 163 226 233 295 442 615 616 626 532 328 102 84 77 42 20 41 76 84 68 158 85 115 5 13 37 90 99 0 0 154 933 716 553
51 86 115 107 332 568 366 650 1009 766 456 498 476 556 673 357 325 597 688 414 284 185 82 45 22 4 0 16 20 12 23 0 3 19 23 57 154 26 0 0 921 834 574
86 94 107 169 238 417 351 499 1202 612 483 474 516 507 955 1015 523 413 392 231 165 127 67 26 1 0 0 0 0 12 0 0 3 22 43 46 44 35 0 0 656 790 721
9 68 94 301 373 524 489 450 950 951 639 771 772 979 1009 689 289 419 509 515 320 408 381 183 71 76 14 2 15 47 128 18 13 39 58 67 44 19 61 33 293 874 654
0 95 55 188 601 820 638 469 672 928 827 702 728 1019 977 607 538 662 528 424 466 339 370 124 14 27 23 17 15 35 113 109 89 44 165 52 16 11 41 125 152 881 850
0 0 27 175 772 1109 1164 608 735 848 618 595 485 474 617 475 557 642 590 605 444 466 276 103 19 61 25 21 19 35 162 152 174 157 159 49 5 0 29 114 214 992 1000
0 2 40 217 869 1180 1333 1350 1058 1040 524 364 307 318 439 664 645 635 617 569 471 480 350 235 5 21 26 25 47 47 89 108 81 166 95 240 27 13 16 57 124 1025 1111
0 0 65 297 962 1339 1515 1483 1172 727 461 293 369 307 439 792 793 767 509 564 531 489 458 442 294 163 51 50 35 31 76 102 66 134 61 102 255 60 17 8 31 1023 1199
0 0 198 153 760 1296 1522 1497 985 461 475 261 285 333 697 889 880 715 670 614 502 540 514 380 149 165 79 31 62 99 200 212 183 248 193 47 34 556 209 0 44 926 1174
0 57 261 344 538 1143 1485 1203 786 549 445 345 346 389 557 809 747 801 789 601 523 574 383 297 112 323 49 70 235 148 217 234 174 217 140 11 27 338 276 273 521 683 1108
23 204 406 390 479 1134 1138 844 462 443 475 295 355 489 616 736 718 824 799 662 599 549 400 133 102 209 114 161 140 189 252 194 176 146 42 60 101 381 261 818 1135 720 934
101 305 325 285 567 938 689 440 347 334 386 278 432 547 752 742 719 750 845 611 591 440 350 228 292 183 163 367 298 335 362 365 94 163 298 144 437 598 389 1113 1246 1021 927
202 250 255 287 574 617 476 371 242 303 209 478 466 660 746 604 581 793 667 570 579 401 259 151 189 266 190 328 220 243 117 115 99 196 584 549 620 612 885 1121 1428 1426 1165
252 305 320 458 616 479 392 344 459 556 588 399 297 457 653 572 632 635 654 645 501 413 126 183 231 231 250 289 443 360 193 55 38 312 594 597 690 882 1123 1328 1445 1179 900
321 348 462 573 533 358 433 400 429 216 160 270 370 124 565 440 436 454 454 522 313 155 255 366 369 341 317 378 379 466 411 382 105 181 730 716 749 1068 1329 1269 1150 1044 433
314 362 533 543 420 491 387 333 449 207 50 144 119 366 600 742 717 505 418 355 397 403 479 532 432 319 388 544 459 334 653 476 208 163 270 591 759 1057 1248 1300 1066 890 906
294 420 467 469 419 448 335 451 505 287 290 226 348 493 770 904 821 557 248 337 436 547 545 379 332 371 588 633 512 370 445 689 425 713 474 459 733 770 939 860 624 132 156
CIN
0 -379 0 0 0 0 0 0 0 0 0 0 0 0 0 0 0 0 0 0 0 0 0 0 0 0 0 0 0 0 0 0 -154 -28 -20 -24 -21 -29 -23 -9 -27 -8 -48
0 -374 0 0 0 0 0 0 0 0 0 0 0 0 0 0 0 0 0 0 0 0 0 0 0 0 0 0 0 0 0 0 0 -214 -44 -22 -15 -21 -23 -3 -17 -3 -34
0 -328 -100 -480 0 0 0 0 0 0 0 0 0 0 0 0 0 0 0 0 0 0 0 0 0 0 0 0 0 0 0 0 0 0 -116 -24 0 -16 -14 -15 -14 -3 -30
0 -271 -435 -583 -121 0 0 0 0 0 0 0 0 0 0 0 0 0 0 0 0 0 0 0 0 0 0 0 0 0 0 -130 0 0 0 -42 -4 -20 -36 -18 -14 -5 -22
0 -208 -318 -530 -550 0 0 0 0 0 0 0 0 0 0 0 -179 -214 -157 -106 -63 0 0 -1 -1 0 -19 -78 -103 -104 0 0 -12 0 0 0 -1 -12 -39 -32 -15 -2 -11
0 -164 -255 -434 -514 0 0 0 0 0 0 0 0 0 -49 -229 -198 -171 -100 -59 -33 -23 -69 -4 0 0 0 -49 -158 -20 -88 0 -4 -4 0 0 0 -42 -6 -17 -28 -2 -16
-107 -145 -202 -368 -493 -470 -469 0 0 0 0 0 0 -260 -212 -147 -112 -76 -10 0 0 -1 -7 -24 -35 -68 -107 -69 -136 -134 -98 -66 0 0 -1 0 0 -17 -12 -8 -9 -11 -9
-45 -128 -160 -306 -386 -455 -429 -409 -417 -399 -365 -312 -273 -253 -175 -131 -63 -10 0 0 0 -3 0 -15 -9 -30 -58 -90 -133 -137 -132 -100 -105 -1 0 -1 -2 -30 -54 -13 -9 -10 -9
-73 -103 -151 -201 -313 -409 -390 -369 -369 -381 -350 -284 -268 -243 -164 -118 -38 -1 0 0 -4 -25 -62 -83 -52 -38 -31 -63 -73 -84 -97 -95 -1 -40 -1 -2 -13 0 0 -104 -4 -4 -10
-54 -73 -134 -163 -191 -271 -309 -291 -306 -340 -319 -281 -260 -217 -152 -76 -56 -43 -45 -65 -117 -115 -103 -138 -142 -106 -69 -42 -53 -30 -85 -77 -1 -1 -2 -146 -220 -10 0 -89 0 -5 -9
-25 -53 -92 -132 -171 -212 -250 -242 -195 -215 -249 -216 -212 -173 -108 -150 -114 -29 -32 -63 -70 -70 -113 -126 -175 -214 0 -136 -126 -90 -163 0 -1 -2 -3 -9 -89 -204 0 0 0 -1 -8
-8 -20 -63 -140 -147 -174 -186 -199 -150 -207 -218 -198 -169 -144 -56 -29 -60 -63 -44 -93 -105 -106 -137 -159 -10 0 0 0 0 -30 0 0 -1 -3 -1 -11 -123 -139 -63 0 -1 0 -2
-9 -10 -21 -102 -164 -162 -163 -160 -149 -129 -167 -129 -114 -52 -31 -68 -118 -65 -36 -29 -73 -26 -17 -37 -78 -65 -1 -2 -3 -124 -47 -1 -2 -2 -4 -120 -99 -60 -94 -115 -13 0 -3
0 -5 -18 -66 -189 -196 -155 -163 -153 -107 -102 -119 -102 -76 -67 -109 -105 -76 -55 -15 -18 -8 -5 -24 -82 -1 -2 -3 -2 -28 -62 -94 -125 -1 -126 -73 -39 -52 -88 -23 -16 0 0
0 0 -13 -52 -191 -233 -196 -142 -163 -128 -143 -130 -157 -165 -164 -130 -75 -45 -31 -25 -13 -2 -2 -21 -73 -44 -1 -9 -1 -2 -59 -56 -64 -99 -73 -49 -37 0 -71 -43 -13 0 0
0 -12 -50 -56 -165 -266 -234 -140 -192 -152 -169 -241 -210 -204 -196 -115 -68 -47 -23 -38 -14 -3 -2 -4 -9 -18 -3 -2 -2 -2 -88 -95 -89 -65 -113 -15 -30 -92 -100 -60 -39 0 0
0 -2 -65 -75 -170 -274 -220 -162 -160 -204 -227 -242 -222 -230 -182 -79 -41 -37 -26 -9 -2 -4 -1 -1 -1 -5 -2 -2 -2 -9 -2 -51 -10 -47 -87 -77 -9 -59 -120 -152 -82 0 0
0 0 -105 -102 -201 -268 -200 -156 -191 -224 -296 -236 -237 -205 -115 -62 -37 -25 -17 -5 -1 -1 0 -1 -3 -3 -5 -4 -7 -7 -2 -8 -4 -5 -33 -14 -7 -9 -67 0 -80 -5 0
0 -106 -135 -201 -277 -265 -186 -175 -217 -228 -251 -244 -215 -178 -96 -48 -25 -15 -2 -1 -1 0 0 -2 -4 -1 -14 -3 -2 -11 -2 -6 -3 -1 -4 -1 -8 -7 -6 -43 -29 -20 -6
-142 -174 -224 -346 -347 -262 -217 -231 -276 -253 -219 -222 -195 -136 -66 -33 -23 -3 -1 0 0 0 0 -8 -6 -2 -2 -10 -2 -1 -3 -3 -10 -6 -2 -2 -13 -2 -9 -1 -3 -15 -11
-257 -338 -396 -425 -383 -282 -288 -291 -270 -232 -211 -198 -138 -92 -34 -19 -6 -6 -1 0 0 0 0 -4 0 -1 -1 0 0 0 -1 -1 -1 -6 -1 0 0 0 -1 0 -1 -4 -17
-356 -432 -457 -461 -407 -329 -302 -258 -240 -206 -183 -99 -62 -28 -9 -8 -12 -2 0 0 0 0 -1 -8 -1 0 -3 -1 0 0 -1 -2 -2 -2 -1 -2 -1 -2 -1 0 0 -1 -1
-398 -450 -464 -443 -372 -325 -260 -229 -183 -132 -80 -102 -83 -20 -16 -12 -3 -2 0 0 0 0 -2 -4 -2 0 0 -1 -1 -2 -2 -2 -6 -1 -2 -2 -1 0 0 0 0 -1 -1
-370 -429 -429 -370 -331 -296 -223 -196 -160 -159 -117 -63 -25 -10 -3 -3 -3 -1 -2 0 -1 -2 -2 -1 -2 -1 -1 0 -9 -6 -16 -8 -1 -4 -1 -4 -6 -1 -1 -1 -5 -1 -35
-386 -413 -365 -321 -293 -216 -212 -170 -127 -136 -169 -76 -33 -7 -1 -1 -1 0 -1 -1 0 -1 0 0 0 -3 -3 -1 -1 -13 -3 -3 -5 -3 -2 -1 -5 -1 0 0 -8 -11 -2
-380 -356 -333 -281 -238 -205 -189 -121 -87 -113 -59 -26 -5 -1 -1 0 0 -1 -1 -2 0 -1 0 -1 -4 -2 -2 -3 -11 -20 -4 -1 -2 -3 -8 -4 -2 -2 0 -1 -15 -102 -28
Wind_Speed
13 11 11 10 11 11 12 12 13 14 15 15 16 16 16 16 15 15 15 15 16 17 18 18 19 20 20 21 21 21 22 23 23 23 23 23 21 16 12 7 7 7 7
11 11 10 9 9 10 11 12 12 13 14 14 15 15 16 15 15 15 15 16 17 18 20 20 19 20 21 21 21 22 22 24 24 25 25 25 22 19 14 10 7 9 5
11 10 9 8 8 9 10 10 11 11 12 13 14 14 15 15 15 15 15 15 16 17 19 21 21 21 21 22 22 22 23 24 25 27 27 27 21 17 17 15 12 11 5
10 10 8 8 7 7 8 9 9 9 10 11 12 13 14 15 16 16 15 14 15 17 19 21 21 21 20 20 22 23 23 24 24 26 27 26 27 13 17 17 16 12 7
9 8 7 7 6 6 7 7 7 8 8 10 11 12 13 15 16 16 15 15 14 16 18 21 23 22 22 21 21 22 24 24 25 26 25 29 30 14 13 17 18 14 9
8 7 6 7 6 6 6 6 6 6 6 7 9 11 14 15 17 17 17 16 16 16 18 18 20 24 26 25 23 24 24 24 26 26 25 26 26 21 19 21 20 16 12
7 6 6 5 6 5 5 5 5 5 5 5 7 11 13 15 17 17 17 18 18 20 20 21 20 20 24 25 26 26 25 25 26 28 27 23 26 26 21 24 25 21 18
8 5 4 3 5 5 3 4 3 3 3 4 8 11 13 14 16 17 16 15 17 19 22 24 25 26 28 25 26 27 27 27 28 26 29 26 21 20 22 25 26 22 20
8 5 2 2 3 4 3 2 1 1 2 4 7 11 13 15 17 18 18 16 16 17 20 22 24 26 27 26 27 28 26 27 28 30 27 27 20 20 23 25 26 24 20
9 5 3 3 2 5 4 3 2 1 3 5 7 10 12 14 16 14 14 13 12 14 18 21 22 24 27 27 27 27 27 26 27 29 30 28 18 18 20 23 26 23 19
12 7 6 6 4 5 5 4 4 3 5 6 7 10 12 14 15 15 11 13 12 13 17 18 19 20 23 27 26 25 25 27 26 22 25 23 24 21 22 24 26 24 18
13 12 9 7 7 6 5 5 3 5 4 4 6 9 10 13 18 19 22 16 15 16 17 16 15 15 17 22 22 17 21 25 26 27 21 23 24 23 23 24 26 24 18
22 20 13 10 9 8 6 5 3 4 4 4 5 8 11 15 17 16 15 14 13 14 15 12 11 13 15 17 21 23 20 20 22 24 17 19 21 23 23 24 26 25 20
26 20 16 12 10 9 8 6 5 5 4 4 5 8 11 14 14 15 16 18 16 16 14 19 21 20 23 25 23 22 24 27 26 21 15 17 20 24 23 25 26 24 22
29 25 20 11 10 10 9 8 6 5 4 6 8 10 10 12 14 16 17 20 18 20 18 19 20 24 21 17 19 23 20 23 24 22 15 17 21 24 23 25 26 25 22
26 22 15 9 10 9 9 9 8 6 5 6 9 10 10 13 15 16 17 17 18 19 18 19 16 20 18 16 19 23 17 23 25 26 18 19 20 22 22 25 26 26 23
14 6 6 8 8 8 9 10 8 6 5 8 9 10 11 13 15 16 18 17 16 17 18 17 18 18 19 20 18 21 20 17 17 23 20 23 17 19 21 23 25 25 23
7 5 5 7 8 7 8 8 8 9 7 7 10 11 12 13 15 17 17 16 19 18 17 17 14 13 13 17 22 20 17 17 18 21 22 24 24 20 19 21 23 23 21
7 5 7 5 7 7 7 7 7 7 9 9 11 13 12 14 15 14 16 15 17 16 14 14 11 9 12 15 16 18 17 17 16 17 19 21 26 24 20 16 21 22 20
16 12 4 3 4 3 4 5 5 7 8 10 12 13 14 15 17 15 14 15 14 12 12 11 10 11 15 15 17 17 17 18 15 19 18 20 20 23 25 21 21 22 20
11 7 1 1 1 2 2 4 5 7 8 10 12 13 15 17 17 16 15 14 12 11 8 8 7 8 14 15 14 14 15 17 17 13 18 22 19 21 22 21 21 21 20
8 3 1 1 2 1 3 5 7 6 8 11 12 14 17 17 16 15 14 13 13 10 6 4 4 10 14 11 10 8 11 14 16 17 18 20 20 22 19 19 19 20 18
4 3 3 3 2 2 4 6 7 9 12 12 13 13 12 15 14 12 11 12 11 7 5 3 5 6 11 8 3 8 10 13 5 12 17 18 16 18 17 16 15 16 13
5 4 4 4 4 4 4 5 6 7 9 13 16 17 17 15 14 13 11 7 6 5 6 6 5 4 5 3 3 10 17 19 5 11 18 18 16 15 17 16 14 9 11
5 4 6 6 6 5 5 7 7 9 12 14 14 16 14 14 10 8 7 7 7 6 6 6 7 8 17 21 24 28 23 23 22 18 8 15 15 14 15 13 13 11 8
5 7 7 7 7 6 7 8 9 12 14 15 15 17 16 10 8 7 8 9 8 8 8 16 21 21 18 14 4 15 24 19 23 19 17 13 11 14 11 10 11 15 15
Wind_Direction
40 62 87 76 67 61 60 59 59 56 50 44 39 34 26 18 9 360 354 348 337 327 324 322 319 313 309 305 301 298 292 290 288 287 284 283 286 294 302 327 336 342 17
53 72 89 82 72 66 65 66 64 58 52 45 41 38 32 25 14 2 352 343 336 326 317 316 316 313 310 307 302 298 294 288 287 285 282 280 283 285 291 299 312 316 360
58 68 94 89 78 72 71 71 70 66 59 52 45 39 32 26 20 9 355 346 339 330 322 314 311 311 308 305 302 299 295 290 286 282 280 277 282 282 283 288 294 298 310
59 72 96 100 89 77 75 76 73 67 59 52 43 35 28 20 11 4 356 356 344 333 323 314 310 308 308 306 302 298 295 292 288 284 278 278 275 280 279 280 285 288 288
70 78 91 106 94 83 84 86 79 73 60 50 41 32 23 13 6 1 356 349 348 338 330 318 308 305 304 302 301 298 295 292 289 285 282 274 272 279 276 277 277 280 279
69 76 80 112 109 104 102 94 89 79 63 52 40 22 12 7 1 355 348 342 340 335 328 324 315 304 296 294 296 296 294 293 288 285 282 277 277 285 281 276 274 277 274
45 63 70 125 132 126 119 113 105 91 74 56 30 11 5 3 359 353 348 338 332 329 325 318 314 311 302 295 291 292 292 290 288 282 280 282 277 276 282 275 271 272 274
8 26 28 126 162 157 145 135 116 93 69 43 12 1 358 359 357 353 349 344 336 331 324 315 308 304 298 296 293 289 287 286 282 283 277 279 280 280 281 277 272 272 271
349 1 348 9 206 196 204 185 152 102 43 14 3 357 355 352 349 349 348 343 339 334 327 322 313 303 298 295 292 289 288 285 280 276 278 279 279 279 278 277 272 272 271
334 323 297 301 263 217 228 246 228 247 337 346 352 352 353 347 345 346 348 343 339 336 330 323 318 310 299 295 292 289 287 287 283 277 276 276 288 280 282 276 272 272 270
330 303 293 271 269 243 231 253 254 281 313 330 341 343 346 344 345 342 337 344 346 338 328 326 322 315 305 296 293 290 287 284 283 283 279 276 280 280 278 275 271 270 268
312 301 278 264 262 255 248 253 264 260 287 305 327 338 344 344 345 344 342 343 337 332 324 321 321 318 311 302 298 293 290 283 280 278 278 279 277 279 276 272 270 267 265
312 311 283 269 262 253 255 240 285 293 291 302 318 337 342 344 344 344 344 339 338 336 333 331 325 322 317 309 298 297 290 287 282 280 277 275 276 276 274 271 268 266 263
307 298 294 263 251 259 259 236 268 294 292 321 332 337 339 341 344 345 342 338 339 335 331 324 318 313 307 301 297 294 287 282 284 285 278 276 274 274 272 270 267 265 261
306 297 301 257 238 253 243 246 253 268 277 316 328 334 338 338 341 341 338 336 332 329 329 322 315 309 310 310 302 291 288 282 282 289 288 278 273 273 269 268 265 262 259
311 301 296 236 236 239 238 248 253 262 282 305 319 329 333 335 337 337 336 335 328 325 325 323 320 315 314 312 304 291 291 280 277 280 282 280 274 273 267 267 264 260 258
315 301 237 242 229 238 250 246 265 269 280 309 320 328 331 333 334 332 331 331 328 328 323 319 316 314 310 307 305 292 290 285 282 276 279 273 271 274 266 266 262 258 256
291 264 254 230 215 245 253 255 265 275 294 306 321 328 329 329 330 330 329 328 326 326 324 319 320 314 311 305 294 295 293 287 282 275 270 270 270 271 268 264 260 256 251
300 283 282 229 225 251 254 264 272 288 301 314 322 327 329 329 329 329 329 328 327 326 324 322 321 314 311 308 303 296 291 282 280 275 274 271 265 269 269 262 261 255 248
314 315 296 242 261 235 265 275 283 302 306 316 323 327 330 330 330 329 328 329 330 331 329 325 318 312 306 309 303 296 288 283 283 277 275 272 273 265 263 271 261 254 247
319 317 293 236 279 274 269 273 289 300 316 321 327 330 331 331 331 331 331 330 331 332 333 328 321 314 308 306 304 298 293 286 283 284 274 268 272 267 265 264 260 254 250
325 344 32 47 338 273 303 300 316 325 329 333 336 336 335 333 334 335 332 333 333 338 343 345 350 323 310 309 304 305 297 290 284 279 273 267 266 263 266 263 260 254 250
350 5 16 28 58 31 341 338 343 345 341 340 337 340 343 345 343 344 344 339 342 353 16 37 354 339 320 320 307 308 304 298 292 281 270 267 265 262 261 262 261 255 247
358 4 26 55 75 23 30 13 358 355 352 349 346 346 349 352 351 350 355 5 24 82 14 20 17 17 355 39 116 146 272 279 300 286 266 261 260 258 256 259 255 248 243
358 45 61 67 59 38 34 16 17 356 356 353 355 352 356 357 5 17 40 66 96 57 47 95 89 108 149 164 168 201 237 230 240 257 270 255 256 256 256 255 249 244 235
75 80 68 65 46 45 37 27 15 3 357 357 360 358 3 20 38 76 83 77 71 78 96 155 171 154 142 131 349 259 221 254 238 252 250 249 248 247 249 246 243 238 242